Find Cubesat-OSCAR-55

NORAD ID: 27844 Int'l Des: 2003-031 Owner: TIT Country: J operational
LEOCIRCULARRETROGRADESSO

現在のビュー

3D地球を読み込み中...

Cubesat-OSCAR-55について

説明を読み込み中...

次回通過

Passes for default location (London). Set your location on the main map for personalized predictions.

高度履歴

Loading altitude history...

軌道要素

1 27844U 03031E 26150.96684404 .00000361 00000-0 17519-3 0 9993
2 27844 98.6737 159.7425 0008531 230.9227 129.1194 14.24324114189227
Epoch: May 30, 2026 • Age: 10 hours

現在のステータス

高度 818.3 km
速度 7.44 km/s
衛星直下点 -7.35°S, 133.11°E
打ち上げ日 Jun 30, 2003
運用期間 22.9 years
タイプ other

技術仕様

分類 Payload
質量 1.00 kg
乾燥質量 1.00 kg
総質量 1.00 kg
長さ 0.10 m
直径 0.10 m
スパン 0.10 m
形状 Box
製造者 TIT
バスタイプ Cubesat 1U
フェーズステータス In Orbit
所有者/国 TIT/J

Most Searched